GW0714 Weather Reports


Display with metric or nautical units.
time (UTC)temp
F
wind
direction
speed
MPH
gust
MPH
rain 1hr
in
rain 24hr
in
rain mn
in
humidity
%
barometer
mb
20260904003049 65 13 3.0 10.0 0.00 0.00 0.00 74 1013.0
20260904002531 65 352 3.0 10.0 0.00 0.00 0.00 74 1012.9
20260904002032 65 352 2.0 6.0 0.00 0.00 0.00 73 1012.8
20260904001550 65 38 1.0 5.0 0.00 0.00 0.00 73 1012.9
20260904001031 65 0 0.0 6.0 0.00 0.00 0.00 73 1013.0
20260904000531 65 301 1.0 7.0 0.00 0.00 0.00 73 1013.1
20260903235535 65 325 2.0 7.0 0.00 0.00 0.00 73 1013.1
20260903235034 65 352 1.0 5.0 0.00 0.00 0.00 72 1013.1
20260903234552 65 325 1.0 7.0 0.00 0.00 0.00 72 1013.1
20260903234031 65 340 2.0 7.0 0.00 0.00 0.00 72 1013.2
20260903233537 65 21 1.0 9.0 0.00 0.00 0.00 72 1013.2
20260903233050 65 0 3.0 9.0 0.00 0.00 0.00 72 1013.2
20260903232532 65 327 4.0 8.0 0.00 0.00 0.00 72 1013.2
20260903232031 65 360 2.0 8.0 0.00 0.00 0.00 72 1013.2
20260903231548 65 42 3.0 8.0 0.00 0.00 0.00 72 1013.2
20260903231031 65 329 2.0 7.0 0.00 0.00 0.00 72 1013.2
20260903230541 65 343 2.0 9.0 0.00 0.00 0.00 72 1013.3
20260903230055 65 339 4.0 10.0 0.00 0.00 0.00 72 1013.4
20260903225529 65 19 4.0 10.0 0.00 0.00 0.00 72 1013.5
20260903225028 65 348 4.0 10.0 0.00 0.00 0.00 71 1013.5
20260903224550 65 360 2.0 5.0 0.00 0.00 0.00 72 1013.5
20260903224029 65 18 2.0 8.0 0.00 0.00 0.00 72 1013.6
20260903223528 65 19 3.0 8.0 0.00 0.00 0.00 71 1013.6
20260903223046 65 335 3.0 7.0 0.00 0.00 0.00 72 1013.6
20260903222529 65 309 2.0 8.0 0.00 0.00 0.00 72 1013.7
20260903222031 65 32 3.0 9.0 0.00 0.00 0.00 72 1013.7
20260903221550 65 330 2.0 9.0 0.00 0.00 0.00 72 1013.9
20260903221025 65 352 3.0 9.0 0.00 0.00 0.00 72 1014.1
20260903220528 65 349 2.0 10.0 0.00 0.00 0.00 72 1014.1
20260903220053 65 342 3.0 10.0 0.00 0.00 0.00 71 1014.1
20260903215530 66 329 1.0 10.0 0.00 0.00 0.00 71 1014.1
20260903215030 66 45 3.0 10.0 0.00 0.00 0.00 70 1014.2
20260903214605 66 56 2.0 8.0 0.00 0.00 0.00 70 1014.2
20260903214031 66 80 1.0 9.0 0.00 0.00 0.00 70 1014.3
20260903213529 66 338 2.0 11.0 0.00 0.00 0.00 69 1014.2
20260903213048 66 84 3.0 11.0 0.00 0.00 0.00 69 1014.3
20260903212535 66 58 2.0 10.0 0.00 0.00 0.00 69 1014.2
20260903212028 66 5 4.0 10.0 0.00 0.00 0.00 69 1014.3
20260903211543 66 22 2.0 9.0 0.00 0.00 0.00 68 1014.3
20260903211026 66 311 3.0 10.0 0.00 0.00 0.00 68 1014.4
20260903210526 66 340 4.0 10.0 0.00 0.00 0.00 68 1014.3
20260903210052 66 13 1.0 8.0 0.00 0.00 0.00 68 1014.4
20260903205528 67 0 3.0 8.0 0.00 0.00 0.00 68 1014.5
20260903205029 67 340 2.0 5.0 0.00 0.00 0.00 68 1014.5
20260903204551 66 0 2.0 8.0 0.00 0.00 0.00 68 1014.5
20260903204026 66 43 2.0 8.0 0.00 0.00 0.00 67 1014.4
20260903203533 66 0 3.0 10.0 0.00 0.00 0.00 69 1014.4
20260903203044 66 360 4.0 10.0 0.00 0.00 0.00 68 1014.5
20260903202534 66 24 4.0 10.0 0.00 0.00 0.00 67 1014.5
20260903202029 66 9 3.0 8.0 0.00 0.00 0.00 68 1014.5
20260903201552 65 333 2.0 7.0 0.00 0.00 0.00 68 1014.5
20260903201032 65 30 3.0 10.0 0.00 0.00 0.00 69 1014.6
20260903200534 65 36 4.0 12.0 0.00 0.00 0.00 68 1014.6
20260903200057 65 346 7.0 12.0 0.00 0.00 0.00 66 1014.6
20260903195531 66 347 7.0 13.0 0.00 0.00 0.00 65 1014.7
20260903195031 66 28 6.0 13.0 0.00 0.00 0.00 63 1014.8
20260903194554 67 346 5.0 11.0 0.00 0.00 0.00 64 1014.8
20260903194031 67 327 5.0 12.0 0.00 0.00 0.00 65 1014.8
20260903193531 67 349 5.0 12.0 0.00 0.00 0.00 63 1014.9
20260903193046 67 13 6.0 12.0 0.00 0.00 0.00 63 1014.9
20260903192535 67 11 4.0 10.0 0.00 0.00 0.00 64 1014.9
20260903192031 67 328 4.0 12.0 0.00 0.00 0.00 63 1014.9
20260903191548 66 57 7.0 12.0 0.00 0.00 0.00 64 1015.0
20260903191031 66 5 3.0 9.0 0.00 0.00 0.00 64 1015.0
20260903190529 66 305 5.0 9.0 0.00 0.00 0.00 65 1015.0
20260903190051 65 317 4.0 11.0 0.00 0.00 0.00 65 1015.1
20260903185530 65 0 4.0 11.0 0.00 0.00 0.00 65 1015.1
20260903185032 65 24 2.0 10.0 0.00 0.00 0.00 64 1015.3
20260903184549 65 24 4.0 10.0 0.00 0.00 0.00 64 1015.3
20260903184029 65 5 3.0 8.0 0.00 0.00 0.00 66 1015.3
20260903183533 65 348 4.0 8.0 0.00 0.00 0.00 65 1015.3
20260903183052 65 326 3.0 8.0 0.00 0.00 0.00 64 1015.3
20260903182531 65 26 3.0 8.0 0.00 0.00 0.00 64 1015.3
20260903182031 66 333 4.0 8.0 0.00 0.00 0.00 64 1015.3
20260903181548 66 17 2.0 10.0 0.00 0.00 0.00 63 1015.4
20260903181031 66 13 2.0 10.0 0.00 0.00 0.00 64 1015.3
20260903180538 66 340 3.0 8.0 0.00 0.00 0.00 63 1015.3
20260903180056 66 18 4.0 8.0 0.00 0.00 0.00 64 1015.4
20260903175529 65 338 3.0 8.0 0.00 0.00 0.00 64 1015.3
20260903175030 65 360 2.0 7.0 0.00 0.00 0.00 66 1015.3
20260903174551 64 0 2.0 8.0 0.00 0.00 0.00 65 1015.3
20260903174031 64 0 2.0 8.0 0.00 0.00 0.00 65 1015.3
20260903173531 64 352 4.0 8.0 0.00 0.00 0.00 64 1015.3
20260903173049 64 36 0.0 5.0 0.00 0.00 0.00 65 1015.3
20260903172533 63 0 1.0 8.0 0.00 0.00 0.00 67 1015.2
20260903172031 62 5 1.0 8.0 0.00 0.00 0.00 66 1015.2
20260903171547 62 349 1.0 8.0 0.00 0.00 0.00 66 1015.2
20260903171033 61 318 0.0 8.0 0.00 0.00 0.00 66 1015.3
20260903170530 61 329 0.0 5.0 0.00 0.00 0.00 67 1015.4
20260903165532 60 325 0.0 3.0 0.00 0.00 0.00 68 1015.5
20260903165032 60 0 0.0 4.0 0.00 0.00 0.00 70 1015.5
20260903164550 60 332 0.0 4.0 0.00 0.00 0.00 70 1015.6
20260903164031 59 296 0.0 8.0 0.00 0.00 0.00 71 1015.5
20260903163530 59 0 2.0 8.0 0.00 0.00 0.00 71 1015.3
20260903163049 59 5 1.0 5.0 0.00 0.00 0.00 72 1015.4
20260903162530 59 325 0.0 4.0 0.00 0.00 0.00 74 1015.5
20260903162032 59 0 1.0 3.0 0.00 0.00 0.00 74 1015.5
20260903161546 59 0 0.0 3.0 0.00 0.00 0.00 74 1015.6
20260903161031 58 0 0.0 3.0 0.00 0.00 0.00 75 1015.6
20260903160530 58 0 0.0 3.0 0.00 0.00 0.00 75 1015.7
20260903160054 58 337 0.0 4.0 0.00 0.00 0.00 75 1015.7
20260903155530 58 0 1.0 4.0 0.00 0.00 0.00 75 1015.6
20260903155030 58 0 0.0 4.0 0.00 0.00 0.00 75 1015.8
20260903154557 58 0 0.0 3.0 0.00 0.00 0.00 76 1015.8
20260903154031 57 0 0.0 3.0 0.00 0.00 0.00 76 1015.8
20260903153532 57 0 0.0 3.0 0.00 0.00 0.00 76 1015.7
20260903153106 57 279 0.0 4.0 0.00 0.00 0.00 77 1015.7
20260903152528 57 269 1.0 4.0 0.00 0.00 0.00 77 1015.7
20260903152028 57 327 1.0 6.0 0.00 0.00 0.00 77 1015.7
20260903151549 56 291 0.0 9.0 0.00 0.00 0.00 78 1015.5
20260903151030 56 295 0.0 9.0 0.00 0.00 0.00 78 1015.5
20260903150530 56 286 2.0 10.0 0.00 0.00 0.00 78 1015.5
20260903150101 56 333 1.0 10.0 0.00 0.00 0.00 78 1015.4
20260903145528 56 314 3.0 10.0 0.00 0.00 0.00 78 1015.4
20260903145031 56 28 2.0 9.0 0.00 0.00 0.00 78 1015.5
20260903144545 56 331 2.0 9.0 0.00 0.00 0.00 79 1015.5
20260903144033 56 10 3.0 9.0 0.00 0.00 0.00 78 1015.4
20260903143533 56 0 2.0 9.0 0.00 0.00 0.00 79 1015.4
20260903143105 56 332 2.0 8.0 0.00 0.00 0.00 79 1015.4
20260903142532 56 352 1.0 4.0 0.00 0.00 0.00 79 1015.4
20260903142032 56 336 0.0 2.0 0.00 0.00 0.00 79 1015.4
20260903141549 56 0 0.0 2.0 0.00 0.00 0.00 79 1015.3
20260903141029 56 0 0.0 2.0 0.00 0.00 0.00 79 1015.3
20260903140527 56 0 0.0 2.0 0.00 0.00 0.00 79 1015.3
20260903140052 56 0 0.0 3.0 0.00 0.00 0.00 79 1015.3
20260903135530 56 0 0.0 3.0 0.00 0.00 0.00 78 1015.3
20260903135029 56 339 0.0 4.0 0.00 0.00 0.00 78 1015.2
20260903134549 56 278 0.0 4.0 0.00 0.00 0.00 78 1015.2
20260903134030 56 333 1.0 4.0 0.00 0.00 0.00 78 1015.2
20260903133527 56 0 0.0 5.0 0.00 0.00 0.00 78 1015.2
20260903133046 56 360 2.0 5.0 0.00 0.00 0.00 78 1015.2
20260903132529 56 5 1.0 5.0 0.00 0.00 0.00 77 1015.2
20260903132029 56 327 2.0 5.0 0.00 0.00 0.00 77 1015.2
20260903131554 56 33 1.0 4.0 0.00 0.00 0.00 77 1015.2
20260903131035 56 0 0.0 3.0 0.00 0.00 0.00 76 1015.1
20260903130533 56 348 0.0 6.0 0.00 0.00 0.00 76 1015.1
20260903130051 56 0 0.0 6.0 0.00 0.00 0.00 76 1015.0
20260903125530 57 0 1.0 6.0 0.00 0.00 0.00 76 1015.1
20260903125031 57 0 0.0 5.0 0.00 0.00 0.00 75 1015.0
20260903124549 57 0 0.0 8.0 0.00 0.00 0.00 75 1015.2
20260903124033 57 0 1.0 8.0 0.00 0.00 0.00 75 1015.2
20260903123529 57 0 1.0 6.0 0.00 0.00 0.00 74 1015.2
20260903123053 57 323 2.0 4.0 0.00 0.00 0.00 74 1015.2
20260903122532 57 300 1.0 6.0 0.00 0.00 0.00 74 1015.2
20260903122030 57 296 0.0 6.0 0.00 0.00 0.00 74 1015.2
20260903121552 57 331 1.0 5.0 0.00 0.00 0.00 74 1015.3
20260903121031 57 331 0.0 6.0 0.00 0.00 0.00 74 1015.4
20260903120533 57 0 1.0 6.0 0.00 0.00 0.00 75 1015.4
20260903120051 58 325 0.0 5.0 0.00 0.00 0.00 75 1015.4
20260903115535 58 0 1.0 6.0 0.00 0.00 0.00 74 1015.4
20260903115031 58 0 1.0 6.0 0.00 0.00 0.00 74 1015.5
20260903114549 58 0 1.0 6.0 0.00 0.00 0.00 74 1015.5
20260903114033 58 317 1.0 10.0 0.00 0.00 0.00 74 1015.6
20260903113531 58 352 2.0 10.0 0.00 0.00 0.00 74 1015.6
20260903113053 58 277 1.0 8.0 0.00 0.00 0.00 73 1015.6
20260903112531 58 341 0.0 8.0 0.00 0.00 0.00 73 1015.5
20260903112031 58 0 1.0 5.0 0.00 0.00 0.00 73 1015.5
20260903111558 58 352 0.0 5.0 0.00 0.00 0.00 73 1015.6
20260903111032 58 339 1.0 5.0 0.00 0.00 0.00 73 1015.6
20260903110528 58 360 0.0 5.0 0.00 0.00 0.00 73 1015.6
20260903110046 58 325 1.0 5.0 0.00 0.00 0.00 73 1015.7
20260903105535 58 331 1.0 5.0 0.00 0.00 0.00 72 1015.8
20260903105033 58 265 0.0 4.0 0.00 0.00 0.00 73 1015.8
20260903104612 58 0 0.0 3.0 0.00 0.00 0.00 73 1015.8
20260903104030 58 0 0.0 2.0 0.00 0.00 0.00 73 1015.8
20260903103531 58 246 0.0 2.0 0.00 0.00 0.00 73 1015.7
20260903103100 58 213 0.0 2.0 0.00 0.00 0.00 73 1015.7
20260903102531 58 0 0.0 2.0 0.00 0.00 0.00 73 1015.7
20260903102031 58 0 0.0 2.0 0.00 0.00 0.00 73 1015.7
20260903101552 58 0 0.0 2.0 0.00 0.00 0.00 73 1015.7
20260903101028 58 0 0.0 2.0 0.00 0.00 0.00 73 1015.8
20260903100529 58 0 0.0 2.0 0.00 0.00 0.00 73 1015.8
20260903100048 58 0 0.0 2.0 0.00 0.00 0.00 73 1015.9
20260903095527 59 280 0.0 2.0 0.00 0.00 0.00 73 1015.9
20260903095028 59 0 0.0 2.0 0.00 0.00 0.00 73 1016.0
20260903094551 59 262 0.0 3.0 0.00 0.00 0.00 73 1016.0
20260903094035 59 0 0.0 3.0 0.00 0.00 0.00 73 1016.1
20260903093528 59 0 0.0 4.0 0.00 0.00 0.00 73 1016.0
20260903093102 59 291 0.0 4.0 0.00 0.00 0.00 73 1016.1
20260903092530 59 342 0.0 4.0 0.00 0.00 0.00 73 1016.1
20260903092035 59 0 0.0 4.0 0.00 0.00 0.00 73 1016.2
20260903091552 59 279 0.0 4.0 0.00 0.00 0.00 73 1016.2
20260903091032 59 333 1.0 5.0 0.00 0.00 0.00 73 1016.2
20260903090530 59 0 0.0 5.0 0.00 0.00 0.00 73 1016.2
20260903090046 59 0 0.0 3.0 0.00 0.00 0.00 73 1016.2
20260903085529 59 0 0.0 3.0 0.00 0.00 0.00 73 1016.2
20260903085028 59 294 0.0 3.0 0.00 0.00 0.00 73 1016.2
20260903084546 59 0 0.0 2.0 0.00 0.00 0.00 73 1016.2
20260903084031 59 0 0.0 2.0 0.00 0.00 0.00 73 1016.2
20260903083529 59 0 0.0 2.0 0.00 0.00 0.00 72 1016.2
20260903083058 59 304 0.0 2.0 0.00 0.00 0.00 72 1016.3
20260903082531 59 269 0.0 2.0 0.00 0.00 0.00 72 1016.2
20260903082030 59 0 0.0 1.0 0.00 0.00 0.00 72 1016.2
20260903081611 59 0 0.0 3.0 0.00 0.00 0.00 72 1016.2
20260903081032 60 0 0.0 6.0 0.00 0.00 0.00 72 1016.2
20260903080535 60 0 0.0 6.0 0.00 0.00 0.00 72 1016.2
20260903080047 60 331 0.0 5.0 0.00 0.00 0.00 72 1016.2
20260903075530 60 333 0.0 5.0 0.00 0.00 0.00 72 1016.2
20260903075029 60 0 0.0 3.0 0.00 0.00 0.00 72 1016.3
20260903074555 60 0 0.0 3.0 0.00 0.00 0.00 72 1016.2
20260903074034 60 338 0.0 2.0 0.00 0.00 0.00 72 1016.2
20260903073529 60 285 0.0 1.0 0.00 0.00 0.00 71 1016.3
20260903073051 60 0 0.0 1.0 0.00 0.00 0.00 71 1016.3
20260903072531 60 0 0.0 2.0 0.00 0.00 0.00 71 1016.3
20260903072031 60 0 0.0 2.0 0.00 0.00 0.00 71 1016.4
20260903071555 60 285 0.0 2.0 0.00 0.00 0.00 71 1016.4
20260903071031 60 0 0.0 2.0 0.00 0.00 0.00 71 1016.4
20260903070531 60 0 0.0 2.0 0.00 0.00 0.00 70 1016.3
20260903070048 60 0 0.0 2.0 0.00 0.00 0.00 70 1016.3
20260903065530 60 0 0.0 2.0 0.00 0.00 0.00 70 1016.3
20260903065029 60 273 0.0 2.0 0.00 0.00 0.00 70 1016.3
20260903064547 60 0 0.0 1.0 0.00 0.00 0.00 70 1016.3
20260903064032 60 0 0.0 1.0 0.00 0.00 0.00 70 1016.3
20260903063527 60 0 0.0 1.0 0.00 0.00 0.00 70 1016.4
20260903063048 60 0 0.0 1.0 0.00 0.00 0.00 70 1016.4
20260903062529 60 273 0.0 1.0 0.00 0.00 0.00 70 1016.5
20260903062031 60 0 0.0 1.0 0.00 0.00 0.00 70 1016.5
20260903061550 61 0 0.0 1.0 0.00 0.00 0.00 70 1016.5
20260903061030 61 283 0.0 1.0 0.00 0.00 0.00 70 1016.5
20260903060530 61 0 0.0 1.0 0.00 0.00 0.00 69 1016.4
20260903060045 61 0 0.0 2.0 0.00 0.00 0.00 69 1016.5
20260903055530 61 0 0.0 2.0 0.00 0.00 0.00 69 1016.6
20260903055029 61 0 0.0 2.0 0.00 0.00 0.00 68 1016.6
20260903054543 62 0 0.0 3.0 0.00 0.00 0.00 69 1016.6
20260903054028 62 0 0.0 3.0 0.00 0.00 0.00 68 1016.6
20260903053528 62 333 0.0 2.0 0.00 0.00 0.00 69 1016.7
20260903053049 62 0 0.0 0.0 0.00 0.00 0.00 68 1016.7
20260903052530 62 0 0.0 2.0 0.00 0.00 0.00 67 1016.8
20260903052031 62 0 0.0 2.0 0.00 0.00 0.00 67 1016.8
20260903051548 62 0 0.0 2.0 0.00 0.00 0.00 67 1016.8
20260903051030 63 0 0.0 2.0 0.00 0.00 0.00 67 1016.8
20260903050528 63 337 1.0 3.0 0.00 0.00 0.00 67 1016.8
20260903050058 63 336 1.0 3.0 0.00 0.00 0.00 67 1016.7
20260903045532 63 331 1.0 3.0 0.00 0.00 0.00 67 1016.8
20260903045028 63 331 0.0 3.0 0.00 0.00 0.00 67 1016.8
20260903044551 63 0 0.0 2.0 0.00 0.00 0.00 67 1016.8
20260903044028 63 0 0.0 2.0 0.00 0.00 0.00 67 1016.8
20260903043528 63 0 0.0 2.0 0.00 0.00 0.00 67 1016.8
20260903043047 63 0 0.0 2.0 0.00 0.00 0.00 67 1016.7
20260903042530 63 0 0.0 2.0 0.00 0.00 0.00 68 1016.7
20260903042030 63 306 0.0 1.0 0.00 0.00 0.00 67 1016.7
20260903041547 63 0 0.0 0.0 0.00 0.00 0.00 67 1016.6
20260903041028 63 0 0.0 0.0 0.00 0.00 0.00 66 1016.6
20260903040529 64 0 0.0 1.0 0.00 0.00 0.00 66 1016.6
20260903040054 64 0 0.0 1.0 0.00 0.00 0.00 65 1016.6
20260903035533 64 0 0.0 1.0 0.00 0.00 0.00 65 1016.5
20260903035028 64 0 0.0 1.0 0.00 0.00 0.00 65 1016.5
20260903034548 64 0 0.0 0.0 0.00 0.00 0.00 64 1016.3
20260903034027 64 0 0.0 0.0 0.00 0.00 0.00 64 1016.2
20260903033527 65 0 0.0 2.0 0.00 0.00 0.00 63 1016.2
20260903033047 65 0 0.0 3.0 0.00 0.00 0.00 63 1016.2
20260903032532 65 0 0.0 3.0 0.00 0.00 0.00 63 1016.2
20260903032030 65 10 0.0 3.0 0.00 0.00 0.00 63 1016.2
20260903031547 65 0 0.0 3.0 0.00 0.00 0.00 62 1016.1
20260903031030 65 352 1.0 3.0 0.00 0.00 0.00 62 1016.0
20260903030531 66 22 0.0 4.0 0.00 0.00 0.00 61 1016.0
20260903030055 66 0 1.0 5.0 0.00 0.00 0.00 61 1015.9
20260903025534 66 5 1.0 5.0 0.00 0.00 0.00 60 1015.9
20260903025030 66 351 2.0 5.0 0.00 0.00 0.00 60 1015.9
20260903024548 67 331 2.0 5.0 0.00 0.00 0.00 59 1016.1
20260903024033 67 325 2.0 5.0 0.00 0.00 0.00 59 1016.0
20260903023537 67 352 2.0 7.0 0.00 0.00 0.00 58 1016.1
20260903023044 67 315 1.0 7.0 0.00 0.00 0.00 58 1016.1
20260903022529 68 329 2.0 5.0 0.00 0.00 0.00 57 1016.2
20260903022028 68 0 1.0 6.0 0.00 0.00 0.00 57 1016.2
20260903021552 68 53 2.0 6.0 0.00 0.00 0.00 57 1016.2
20260903021031 68 0 1.0 7.0 0.00 0.00 0.00 57 1016.2
20260903020531 68 0 1.0 8.0 0.00 0.00 0.00 57 1016.3
20260903020104 69 72 1.0 9.0 0.00 0.00 0.00 56 1016.2
20260903015530 69 77 2.0 10.0 0.00 0.00 0.00 55 1016.2
20260903015029 69 331 3.0 12.0 0.00 0.00 0.00 55 1016.2
20260903014552 69 5 6.0 12.0 0.00 0.00 0.00 54 1016.2
20260903014030 69 5 3.0 9.0 0.00 0.00 0.00 54 1016.3
20260903013528 69 329 2.0 11.0 0.00 0.00 0.00 55 1016.3
20260903013050 69 333 5.0 11.0 0.00 0.00 0.00 55 1016.3
20260903012527 69 9 6.0 11.0 0.00 0.00 0.00 55 1016.3
20260903012032 69 19 3.0 9.0 0.00 0.00 0.00 55 1016.3
20260903011542 69 29 1.0 10.0 0.00 0.00 0.00 55 1016.4
20260903011030 70 340 4.0 10.0 0.00 0.00 0.00 54 1016.4
20260903010531 70 319 5.0 10.0 0.00 0.00 0.00 54 1016.4
20260903010052 71 74 1.0 10.0 0.00 0.00 0.00 53 1016.3
20260903005532 71 302 2.0 10.0 0.00 0.00 0.00 54 1016.4
20260903005032 71 11 4.0 10.0 0.00 0.00 0.00 53 1016.4
20260903004550 71 19 2.0 7.0 0.00 0.00 0.00 54 1016.4
20260903004033 70 49 1.0 8.0 0.00 0.00 0.00 55 1016.5
20260903003528 70 333 2.0 8.0 0.00 0.00 0.00 54 1016.5